This is the latest recevied weather packets stored in our database for station/object KD0RII. If no packets are shown the sender has not sent any weather packets the latest 10 day(s).
| Time | Temp. | Humidity | Pressure | Rain* | Wind** | Luminosity | Snow |
|---|---|---|---|---|---|---|---|
| 1778291104 | 13.33° C | 84% | 1010.2 hPa | 0 mm | - | 0 W/m² | - |
| 1778290801 | 13.89° C | 82% | 1010 hPa | 0 mm | - | 0 W/m² | - |
| 1778290497 | 14.44° C | 81% | 1009.9 hPa | 0 mm | - | 0 W/m² | - |
| 1778290193 | 15° C | 80% | 1010 hPa | 0 mm | - | 1 W/m² | - |
| 1778289890 | 15° C | 80% | 1010.2 hPa | 0 mm | - | 2 W/m² | - |
| 1778289587 | 15.56° C | 79% | 1010 hPa | 0 mm | - | 3 W/m² | - |
| 1778289284 | 16.11° C | 78% | 1009.8 hPa | 0 mm | - | 5 W/m² | - |
| 1778288982 | 16.67° C | 76% | 1009.8 hPa | 0 mm | - | 8 W/m² | - |
| 1778288679 | 16.67° C | 74% | 1009.8 hPa | 0 mm | - | 11 W/m² | - |
| 1778288376 | 17.78° C | 72% | 1009.5 hPa | 0 mm | - | 14 W/m² | - |
| 1778288075 | 17.78° C | 71% | 1009.5 hPa | 0 mm | - | 17 W/m² | - |
| 1778287774 | 18.33° C | 70% | 1009.4 hPa | 0 mm | - | 20 W/m² | - |
| 1778287471 | 18.89° C | 67% | 1009.2 hPa | 0 mm | - | 23 W/m² | - |
| 1778287169 | 19.44° C | 66% | 1009.1 hPa | 0 mm | - | 25 W/m² | - |
| 1778286866 | 20° C | 64% | 1009.1 hPa | 0 mm | - | 27 W/m² | - |
| 1778286563 | 20° C | 65% | 1009.1 hPa | 0 mm | - | 43 W/m² | - |
| 1778286261 | 20° C | 65% | 1009.1 hPa | 0 mm | - | 30 W/m² | - |
| 1778285958 | 20.56° C | 64% | 1008.9 hPa | 0 mm | - | 41 W/m² | - |
| 1778285654 | 20.56° C | 63% | 1009.1 hPa | 0 mm | - | 66 W/m² | - |
| 1778285352 | 20.56° C | 64% | 1009.1 hPa | 0 mm | - | 45 W/m² | - |
| 1778285049 | 20.56° C | 63% | 1008.7 hPa | 0 mm | - | 51 W/m² | - |
| 1778284745 | 21.11° C | 62% | 1008.9 hPa | 0 mm | - | 43 W/m² | - |
| 1778284443 | 21.11° C | 61% | 1008.8 hPa | 0 mm | - | 52 W/m² | - |
| 1778284139 | 21.67° C | 60% | 1008.7 hPa | 0 mm | - | 158 W/m² | - |
| 1778283836 | 22.22° C | 59% | 1008.8 hPa | 0 mm | - | 175 W/m² | - |
* Rain latest hour (hover to see other rain measurements)
** Current wind speed in m/s (hover to see current wind gust speed)